Location: Bęczków
(50.8761°N, 20.8028°E)
Time: 00:15:23
(UTC+02:00)

ISS - Visible Passes

Search period start: 21 September 2018 00:00
Search period end: 01 October 2018 00:00
Orbit: 403 x 408 km, 51.6° (Epoch: 20 September)

Date Brightness Start Highest point End Pass type
(mag) Time Alt. Az. Time Alt. Az. Time Alt. Az.
22 Sep -1.6 20:27:52 10° SSW 20:28:49 16° SSW 20:28:49 16° SSW visible
23 Sep -2.1 19:36:46 10° S 19:38:59 17° SE 19:39:35 16° SE visible
23 Sep -1.1 21:11:47 10° WSW 21:12:17 14° WSW 21:12:17 14° WSW visible
24 Sep -3.3 20:20:04 10° SW 20:22:51 42° S 20:22:51 42° S visible
25 Sep -2.8 19:28:30 10° SSW 19:31:26 30° SSE 19:33:16 18° E visible
25 Sep -1.8 21:04:25 10° WSW 21:05:57 25° WSW 21:05:57 25° WSW visible
26 Sep -3.9 20:12:32 10° WSW 20:15:50 71° SSE 20:16:13 61° ESE visible
27 Sep -3.5 19:20:44 10° SW 19:23:57 51° SSE 19:26:24 16° E visible
27 Sep -2.1 20:57:06 10° W 20:59:05 33° W 20:59:05 33° W visible
28 Sep -3.9 20:05:08 10° W 20:08:28 85° N 20:09:11 52° ENE visible
28 Sep -0.4 21:41:44 10° W 21:41:51 11° W 21:41:51 11° W visible
29 Sep -3.8 19:13:12 10° WSW 19:16:30 79° SSE 19:19:13 14° ENE visible
29 Sep -2.3 20:49:45 10° W 20:51:53 37° WNW 20:51:53 37° WNW visible
30 Sep -3.8 19:57:46 10° W 20:01:04 76° N 20:01:53 47° ENE visible
30 Sep -0.4 21:34:19 10° WNW 21:34:33 12° WNW 21:34:33 12° WNW visible
